STARLINK-34317, 64162

Orbit data source: Space-Track

STARLINK-34317, 64162 is a payload satellite owned by SpaceX/Seattle (US) in SSO that was launched on Tue, 27 May 2025 UTC via an FALCON 9 launch vehicle from the Air Force Western Test Range (AFWTR). Payload-class satellites include a variety of spacecraft equipped with specific instruments for various scientific and technological missions. These include communications satellites like Starlink; space stations such as the ISS; scientific satellites like the Hubble; Earth observation satellites from companies like Planet Labs, Umbra, and HawkEye 360; GPS; miniature CubeSats for education and research; and military/defense satellites.

Loading next visibility...
Identifier
64162, 2025-112S
Orbit
SSO
Country
Flag of USUS
Related business
Manufacturer
SpaceX/Seattle
Mission
Operational Commercial Communications
Bus & Motor
STARLINK V2MO, Unknown motor
Mass
575 kg wet, ~530 kg dry
Launch date (UTC)
2025-05-27 (1 year ago)
Launch vehicle
FALCON 9
Launch site
Air Force Western Test Range (AFWTR)
Object type
Payload
Rocket body
Debris
Shape & HBR
Box + 1 Pan, 17.7 m
Radar Cross Section
41.120 m², Large (>1 m²)

Expand to show TLE details & history
Last TLE update: 19 hours ago

TLE from 19 hours ago
0 STARLINK-34317
1 64162U 25112S   26237.55560345  .00016775  00000-0  52092-3 0  9990
2 64162  97.2836 285.0259 0000548  50.5582 309.5709 15.33436663 68770
Epoch: 2026-08-25T13:20Z
TLE epoch observation values (Epoch: 2026-08-25T13:20:04.138Z)
Latitude
-0.00002°
Longitude
111.18739°
Altitude
468.441 km
Speed
7.632 km/s
True Right ascension
19h 00m 06s
True Declination
0° 00' 00"
Sunlit
Object was in full shadow at epoch
Visualization orbit readout
Latitude
Unknown
Longitude
Unknown
Altitude
Unknown
Speed
Unknown
Apparent Right ascension
Unknown
Apparent Declination
Unknown
Sunlit
N/A
Visualization observer readout
Local Sidereal Time
23:18:36
Azimuth
Unknown
Elevation
Unknown
Doppler factor
Unknown
Orbital elements
Apogee altitude
462.886 km
Perigee altitude
462.136 km
Semi-major axis
6,840.648 km
Eccentricity
0.00005
Inclination
97.2836°
RAAN
285.0259°
Arg. of periapsis
50.5582°
True anomaly
309.56606°
Mean anomaly
309.5709°
Eccentric anomaly
309.56848°
Mean motion
3.83617 °/min
Orbital period
93.84 mins
BSTAR
0.00052092
Loading maneuver chart data...
Computing Atmospheric mass density...
Loading historical data...
Loading historical data...
Loading historical data...
Loading historical data...
Loading historical data...
Loading historical data...
Loading historical data...

Documentation

Showing up to 5 results
|